User: anonymous   Login
Location: Arbon
(43.0005°N, 0.7472°E)
Time: 20:40:00
(UTC+00:00)
Language:

SL-4 R/B - Orbit

View from above orbital plane
View from above orbital plane
View from above satellite
View from above satellite

Ground track
Ground track

The orbit data is extracted from the following two-line orbital elements,

1 39679U 14021B   21210.16691306  .00000165  00000-0  25853-4 0  9999
2 39679  51.6180  19.1395 0169252 275.8407  82.3293 15.07039403400668
Epoch (UTC): 29 July 2021 04:00:21
Eccentricity: 0.0169252
inclination: 51.6180°
perigee height: 428 km
apogee height: 662 km
right ascension of ascending node: 19.1395°
argument of perigee: 275.8407°
revolutions per day: 15.07039403
mean anomaly at epoch: 82.3293°
orbit number at epoch: 40066

The dashed part of the orbit path shows where the satellite is in the earth's shadow,  

DLR